[[{"header":{"parameterUnit":"m.s-1","parameterCategory":1,"la1":30.2991,"la2":30.254,"lo1":-89.0895,"lo2":-89.0444,"dy":0.0017,"dx":0.0017,"nx":28,"ny":28,"refTime":"2023-11-17T03:00:00:Z","depth":0,"parameterNumber":2,"parameterNumberName":"U-component_of_WINDS"},"data":[0,0,0,0,0,0,0,0,0,0,0,0,0,0,0,0,0,0,0,0,0,0,0,0,0,0,0,0,0,0,0,0,0,0,0,0,0,0,0,0,0,0,0,0,0,0,0,0,0,0,0,0,0,0,0,0,0,0,0.5828,0.5828,0,0.5838,0.5838,0.5839,0.584,0.584,0.584,0.584,0.5851,0.5852,0.5852,0,0,0,0,0,0,0,0,0,0,0,0,0,0.5812,0.5812,0.5828,0.5828,0.5828,0.5838,0.5838,0.5839,0.584,0.584,0.584,0.584,0.5851,0.5852,0.5852,0,0,0,0,0,0,0,0,0,0,0,0,0,0.582,0.5812,0.5828,0.583,0.583,0.5838,0.5838,0.5839,0.584,0.584,0.584,0.584,0.5851,0.5852,0.5852,0.5859,0,0,0.5854,0.5854,0,0,0,0,0,0,0,0,0.5819,0.5821,0.583,0.583,0.583,0.5838,0.5837,0.5845,0.584,0.5837,0.584,0.584,0.5847,0.5848,0.585,0.5859,0.586,0.5854,0.5855,0.5855,0.5855,0,0,0,0,0,0,0,0.5819,0.582,0.5832,0.583,0.583,0.5831,0.5832,0.5839,0.5843,0.5837,0.5837,0.5838,0.5847,0.585,0.5851,0.586,0.5854,0.5855,0.5855,0.5855,0.5877,0.5877,0,0,0,0,0,0,0.5818,0.582,0.5832,0.5832,0.5824,0.5832,0.5833,0.5836,0.5842,0.5843,0.5838,0.5838,0.5849,0.585,0.5851,0.586,0.5855,0.5855,0.5856,0.5876,0.5877,0.5877,0,0,0,0,0,0,0.5817,0.5819,0.5831,0.5826,0.5828,0.5832,0.5835,0.5836,0.5838,0.5844,0.5844,0.584,0.5849,0.585,0.5857,0.586,0.5856,0.5856,0.5876,0.5876,0.5877,0.5877,0,0,0,0,0,0,0.5817,0.5819,0.582,0.5826,0.5828,0.5836,0.5835,0.5836,0.5839,0.5839,0.5845,0.5846,0.5849,0.5856,0.5858,0.5861,0.5857,0.5876,0.5876,0.5877,0.5877,0.5877,0.5878,0,0,0,0,0,0.5816,0.582,0.582,0.5822,0.583,0.5837,0.5838,0.584,0.5839,0.5842,0.5846,0.5846,0.586,0.5857,0.5859,0.5862,0.5876,0.5876,0.5877,0.5876,0.5877,0.5878,0,0,0,0,0,0,0.5814,0.582,0.5821,0.5827,0.5831,0.5837,0.584,0.5841,0.5846,0.5846,0.5849,0.5851,0.5858,0.5861,0.5857,0.587,0.5868,0.5869,0.5867,0.5868,0.5868,0.5867,0.5857,0,0,0,0,0,0.5814,0.5819,0.5824,0.5828,0.5831,0.5835,0.5838,0.584,0.5844,0.5846,0.585,0.5855,0.5861,0.5865,0.587,0.5878,0.5879,0.5881,0.5881,0.5882,0.5882,0.5888,0.5889,0.5878,0.5878,0.5878,0,0,0.5815,0.5819,0.5821,0.5828,0.5832,0.5837,0.5836,0.5841,0.5845,0.5847,0.5854,0.5858,0.5864,0.5871,0.5875,0.5874,0.5886,0.5882,0.5883,0.5883,0.5888,0.5889,0.589,0.5879,0.5879,0.5879,0,0,0.5818,0.5821,0.5825,0.5829,0.5835,0.5838,0.584,0.5846,0.5848,0.5855,0.5857,0.5862,0.5872,0.5876,0.588,0.5887,0.5888,0.5889,0.5891,0.5897,0.5897,0.5898,0.5901,0.5902,0.5889,0.5889,0.5889,0,0.5817,0.5824,0.5828,0.5833,0.5836,0.5839,0.5844,0.5848,0.5855,0.5858,0.5857,0.587,0.5874,0.5884,0.5885,0.5888,0.589,0.5888,0.5897,0.5898,0.5899,0.5902,0.5903,0.589,0.589,0.589,0.589,0,0.5824,0.5829,0.5832,0.584,0.5844,0.5849,0.5854,0.5858,0.586,0.5863,0.5871,0.5877,0.5884,0.5887,0.5888,0.5897,0.5896,0.5896,0.5894,0.5899,0.5903,0.5904,0.589,0.589,0.589,0.589,0,0,0.5825,0.5835,0.5836,0.584,0.5847,0.5852,0.5858,0.5865,0.5869,0.5874,0.588,0.5889,0.5889,0.5894,0.5896,0.5901,0.5908,0.5901,0.5901,0.5902,0.5918,0.5918,0.5919,0.5909,0.5909,0.5909,0.5918,0,0.5829,0.5839,0.5843,0.5852,0.5857,0.5861,0.5866,0.5872,0.5876,0.5882,0.5887,0.5893,0.5893,0.5896,0.5901,0.5906,0.5911,0.5905,0.5915,0.5915,0.5913,0.5921,0.592,0.5928,0.5919,0.5919,0.5919,0,0.5835,0.5841,0.585,0.5858,0.586,0.5865,0.5873,0.5878,0.5885,0.5888,0.5894,0.5897,0.5904,0.5903,0.5914,0.591,0.5915,0.5918,0.5919,0.5919,0.5917,0.5922,0.593,0.5931,0.5921,0.5921,0.5921,0,0.5835,0.5845,0.5852,0.5855,0.5865,0.5869,0.5873,0.588,0.5885,0.5892,0.5895,0.5903,0.5907,0.5914,0.5919,0.5918,0.5931,0.5929,0.5934,0.5934,0.5936,0.5935,0.5945,0.5939,0.5939,0.5939,0.5939,0,0.5839,0.5844,0.5852,0.5857,0.5864,0.5869,0.5876,0.5881,0.5888,0.5894,0.5898,0.5903,0.591,0.5917,0.5922,0.5931,0.5933,0.5936,0.5937,0.5936,0.5935,0.5938,0.5938,0.5939,0.5939,0.5939,0.5939,0,0.5839,0.5845,0.5853,0.5862,0.5865,0.5869,0.5877,0.5882,0.5887,0.5895,0.5898,0.5905,0.5914,0.5921,0.5932,0.5935,0.5945,0.5946,0.5942,0.5943,0.5947,0.5947,0.5959,0.5961,0.5953,0.5954,0.5954,0,0.5841,0.5846,0.5856,0.586,0.5864,0.5871,0.5876,0.5882,0.5887,0.5897,0.5901,0.591,0.5918,0.5932,0.5939,0.5948,0.595,0.5953,0.5951,0.595,0.595,0.595,0.5951,0.5953,0.5954,0.5954,0.5954,0,0.5844,0.5847,0.5854,0.5862,0.5868,0.5875,0.5882,0.5885,0.5893,0.5899,0.5908,0.5914,0.5926,0.5935,0.5946,0.5951,0.5954,0.5955,0.5956,0.5954,0.5952,0.5954,0.5943,0.5954,0.5954,0.5954,0.5954,0.5954,0.5846,0.5851,0.5859,0.5866,0.5872,0.5879,0.5885,0.5891,0.5898,0.5908,0.5912,0.5922,0.5931,0.5945,0.5951,0.5959,0.5959,0.5961,0.5961,0.5962,0.5962,0.5951,0.5961,0.5961,0.5961,0.5961,0.5961,0,0.585,0.5855,0.5862,0.5872,0.5879,0.5881,0.589,0.5895,0.5903,0.5911,0.5919,0.593,0.594,0.5949,0.5959,0.5964,0.5966,0.5967,0.5966,0.5968,0.5961,0.5959,0.5965,0.5965,0.5965,0.5965,0.5965,0.5965,0.5852,0.586,0.5865,0.5877,0.5883,0.5892,0.5896,0.5903,0.591,0.5922,0.593,0.5936,0.5945,0.5956,0.5965,0.5968,0.5972,0.5972,0.5975,0.5968,0.5968,0.5967,0.5965,0.5973,0.5973,0.5981,0.5981,0.5981]},{"header":{"parameterUnit":"m.s-1","parameterCategory":1,"la1":30.2991,"la2":30.254,"lo1":-89.0895,"lo2":-89.0444,"dy":0.0017,"dx":0.0017,"nx":28,"ny":28,"refTime":"2023-11-17T03:00:00:Z","depth":0,"parameterNumber":3,"parameterNumberName":"V-component_of_WINDS"},"data":[0,0,0,0,0,0,0,0,0,0,0,0,0,0,0,0,0,0,0,0,0,0,0,0,0,0,0,0,0,0,0,0,0,0,0,0,0,0,0,0,0,0,0,0,0,0,0,0,0,0,0,0,0,0,0,0,0,0,-4.8009,-4.801,0,-4.8067,-4.8067,-4.8068,-4.8053,-4.8052,-4.8051,-4.805,-4.8105,-4.8107,-4.8109,0,0,0,0,0,0,0,0,0,0,0,0,0,-4.7884,-4.7886,-4.8009,-4.801,-4.801,-4.8067,-4.8067,-4.8068,-4.8054,-4.8052,-4.8051,-4.805,-4.8104,-4.8107,-4.811,0,0,0,0,0,0,0,0,0,0,0,0,0,-4.7939,-4.7887,-4.8009,-4.801,-4.8011,-4.8067,-4.8067,-4.8068,-4.8054,-4.8052,-4.805,-4.8049,-4.8103,-4.8106,-4.811,-4.8167,0,0,-4.8121,-4.8123,0,0,0,0,0,0,0,0,-4.7936,-4.7944,-4.8009,-4.801,-4.8011,-4.8051,-4.8043,-4.8101,-4.8054,-4.8037,-4.805,-4.8048,-4.8088,-4.8093,-4.8107,-4.8169,-4.8172,-4.8122,-4.8124,-4.8126,-4.8127,0,0,0,0,0,0,0,-4.7933,-4.7941,-4.8032,-4.801,-4.8011,-4.8007,-4.8013,-4.8054,-4.8071,-4.8039,-4.8038,-4.8045,-4.8088,-4.8104,-4.8108,-4.8172,-4.8122,-4.8125,-4.8127,-4.8129,-4.8288,-4.829,0,0,0,0,0,0,-4.7928,-4.7938,-4.803,-4.8033,-4.7969,-4.8011,-4.8017,-4.804,-4.8071,-4.8074,-4.8046,-4.8044,-4.8098,-4.8104,-4.811,-4.8182,-4.8126,-4.8129,-4.8131,-4.8286,-4.8289,-4.8291,0,0,0,0,0,0,-4.7926,-4.7937,-4.8027,-4.7986,-4.7997,-4.8015,-4.804,-4.8042,-4.8058,-4.8077,-4.8079,-4.8059,-4.8097,-4.8105,-4.8154,-4.8183,-4.8131,-4.8134,-4.8284,-4.8287,-4.829,-4.8323,0,0,0,0,0,0,-4.7922,-4.7936,-4.7958,-4.7986,-4.7999,-4.8071,-4.8042,-4.8044,-4.8065,-4.8062,-4.8089,-4.8092,-4.8096,-4.8149,-4.8158,-4.8187,-4.8137,-4.8281,-4.8285,-4.8289,-4.8319,-4.8327,-4.8333,0,0,0,0,0,-4.7918,-4.7963,-4.7959,-4.797,-4.8027,-4.8073,-4.808,-4.8085,-4.8067,-4.8089,-4.8102,-4.8091,-4.8178,-4.8154,-4.8164,-4.8195,-4.828,-4.8284,-4.8289,-4.8316,-4.8325,-4.8333,0,0,0,0,0,0,-4.7934,-4.7966,-4.7962,-4.8018,-4.8043,-4.807,-4.8098,-4.8094,-4.8123,-4.8119,-4.8122,-4.8129,-4.818,-4.8192,-4.8164,-4.8254,-4.8226,-4.8233,-4.8244,-4.8253,-4.8259,-4.8256,-4.814,0,0,0,0,0,-4.7945,-4.798,-4.8006,-4.8052,-4.8065,-4.808,-4.81,-4.8102,-4.8127,-4.8137,-4.8153,-4.8177,-4.8211,-4.8232,-4.8263,-4.8321,-4.8328,-4.8348,-4.8354,-4.836,-4.8366,-4.8401,-4.8411,-4.8306,-4.8306,-4.8306,0,0,-4.7965,-4.7988,-4.8009,-4.8056,-4.8076,-4.8113,-4.8089,-4.8127,-4.8155,-4.8142,-4.8191,-4.8204,-4.8231,-4.8287,-4.8311,-4.8298,-4.8397,-4.8366,-4.837,-4.8373,-4.8407,-4.8416,-4.8425,-4.8309,-4.8308,-4.8308,0,0,-4.8023,-4.8043,-4.8086,-4.8107,-4.8139,-4.8149,-4.8159,-4.8188,-4.8197,-4.8247,-4.824,-4.8272,-4.8328,-4.8349,-4.8366,-4.8437,-4.8429,-4.8447,-4.8483,-4.8517,-4.8525,-4.8532,-4.856,-4.8569,-4.8453,-4.8453,-4.8453,0,-4.8045,-4.8101,-4.8108,-4.8149,-4.8171,-4.8165,-4.8209,-4.8228,-4.8267,-4.8283,-4.8268,-4.8341,-4.8358,-4.842,-4.8438,-4.8452,-4.8465,-4.8444,-4.8523,-4.8531,-4.8538,-4.8564,-4.8574,-4.8455,-4.8455,-4.8454,-4.8454,0,-4.8128,-4.8167,-4.8198,-4.824,-4.8265,-4.8306,-4.832,-4.8345,-4.8346,-4.8357,-4.8409,-4.8431,-4.8468,-4.8483,-4.8482,-4.8545,-4.8537,-4.8522,-4.8495,-4.855,-4.8575,-4.8585,-4.8458,-4.8457,-4.8456,-4.8456,0,0,-4.8195,-4.8243,-4.8255,-4.8275,-4.8311,-4.8342,-4.8384,-4.8423,-4.8446,-4.8473,-4.851,-4.856,-4.8549,-4.8569,-4.8571,-4.8601,-4.8659,-4.8584,-4.8585,-4.8599,-4.8733,-4.8745,-4.8756,-4.8654,-4.8656,-4.8658,-4.8732,0,-4.8257,-4.8335,-4.8345,-4.8413,-4.8451,-4.8448,-4.8485,-4.8512,-4.8525,-4.8558,-4.8571,-4.8608,-4.8589,-4.8602,-4.8631,-4.8646,-4.8686,-4.8641,-4.8689,-4.8691,-4.8684,-4.8769,-4.878,-4.8849,-4.8741,-4.8743,-4.8744,0,-4.834,-4.8375,-4.8449,-4.8484,-4.85,-4.8533,-4.8572,-4.8604,-4.8634,-4.8642,-4.8667,-4.8667,-4.8712,-4.8683,-4.8746,-4.8714,-4.8735,-4.8746,-4.8748,-4.8754,-4.8721,-4.8778,-4.8871,-4.8882,-4.8759,-4.8758,-4.8757,0,-4.8385,-4.845,-4.8503,-4.852,-4.8562,-4.8586,-4.8604,-4.8633,-4.8658,-4.8691,-4.8707,-4.8744,-4.8765,-4.8793,-4.8803,-4.8781,-4.8867,-4.8838,-4.8875,-4.8875,-4.8893,-4.8892,-4.8992,-4.8904,-4.8904,-4.8903,-4.8903,0,-4.8455,-4.8501,-4.8525,-4.8558,-4.861,-4.862,-4.8671,-4.8688,-4.8714,-4.8751,-4.8749,-4.8783,-4.8793,-4.8829,-4.8836,-4.8889,-4.8897,-4.8905,-4.8907,-4.8906,-4.8906,-4.8921,-4.8917,-4.8906,-4.8905,-4.8905,-4.8904,0,-4.8514,-4.8531,-4.859,-4.8626,-4.8637,-4.8673,-4.8704,-4.8736,-4.875,-4.8796,-4.8808,-4.8829,-4.8872,-4.8885,-4.8934,-4.894,-4.9002,-4.8998,-4.8993,-4.8993,-4.9031,-4.9028,-4.9145,-4.9162,-4.9061,-4.9061,-4.9062,0,-4.8558,-4.8594,-4.8635,-4.8661,-4.8681,-4.8721,-4.8748,-4.876,-4.8787,-4.8827,-4.8855,-4.8898,-4.8933,-4.9001,-4.902,-4.906,-4.9058,-4.9097,-4.9064,-4.9064,-4.9062,-4.906,-4.9065,-4.9103,-4.9104,-4.9105,-4.9105,0,-4.8635,-4.8643,-4.8682,-4.8725,-4.8757,-4.8791,-4.8823,-4.8844,-4.8861,-4.8892,-4.8937,-4.8965,-4.9019,-4.9062,-4.9102,-4.912,-4.9117,-4.9116,-4.9127,-4.9127,-4.9124,-4.9129,-4.9012,-4.9113,-4.9112,-4.9112,-4.9111,-4.9111,-4.8689,-4.8722,-4.8759,-4.8803,-4.8829,-4.8861,-4.8894,-4.8914,-4.8953,-4.9,-4.9004,-4.9054,-4.9086,-4.9141,-4.9162,-4.92,-4.9189,-4.9204,-4.9209,-4.9213,-4.9217,-4.9117,-4.9207,-4.9207,-4.9207,-4.9207,-4.9207,0,-4.8768,-4.8793,-4.8833,-4.8881,-4.8917,-4.8913,-4.8949,-4.8979,-4.9023,-4.9055,-4.9091,-4.9145,-4.9188,-4.9212,-4.9255,-4.9282,-4.9281,-4.9293,-4.9291,-4.9296,-4.9223,-4.9211,-4.9293,-4.9293,-4.9293,-4.9293,-4.9293,-4.9292,-4.8814,-4.8872,-4.8885,-4.8956,-4.8979,-4.903,-4.9052,-4.9082,-4.9108,-4.9169,-4.9206,-4.9222,-4.9252,-4.9297,-4.9337,-4.9343,-4.936,-4.9373,-4.9378,-4.931,-4.9301,-4.9292,-4.9281,-4.9376,-4.9376,-4.9448,-4.9449,-4.9449]}]]